Retour au catalogue

STARLINK-2139

ActifCommunicationsVLEO
NORAD 48554·PAYLOAD·🇺🇸 United States

Lancé May 15, 2021 depuis Cape Canaveral Space Force Station

Loading…

Prochains Passages (prochaines 24 heures)

TLE

FraisSource: CelesTrak SupGP

Époque: Sep 14, 2026, 13:01 UTC

1 48554C 21041B   26257.54284722  .00012951  00000+0  41652-3 0  2575
2 48554  53.1602 327.8302 0001255  76.9902  64.8949 15.31691133    10

Suivez STARLINK-2139 en temps réel avec AllMySat

Download on the App Store